• In France
  • List of Countries
  • For 7 days
  • Water Temperature
  • Satellite Maps
  • Weather Map
  • Weather Widgets
  • user-avatar
    Login

    Hourly Weather Brazzaville

    Today, 14 December, Thursday

    Time Temperature Precipitation Wind Pressure Humidity
    00:00 +25°C° 0 mm 1 mps 734 mmHg 92%
    01:00 +25°C° 0 mm 1 mps 734 mmHg 93%
    02:00 +25°C° 0.2 mm 1 mps 734 mmHg 93%
    03:00 +25°C° 0.2 mm 1 mps 734 mmHg 94%
    04:00 +25°C° 0.2 mm 1 mps 734 mmHg 94%
    05:00 +25°C° 0.1 mm 1 mps 734 mmHg 93%
    06:00 +25°C° 0.1 mm 1 mps 734 mmHg 92%
    07:00 +26°C° 0 mm 1 mps 735 mmHg 90%
    08:00 +27°C° 0.9 mm 1 mps 735 mmHg 88%
    09:00 +28°C° 0.9 mm 2 mps 735 mmHg 85%
    10:00 +29°C° 0.9 mm 2 mps 735 mmHg 82%
    11:00 +29°C° 1.8 mm 2 mps 735 mmHg 81%
    12:00 +30°C° 1.8 mm 2 mps 734 mmHg 80%
    13:00 +30°C° 1.8 mm 2 mps 734 mmHg 79%
    14:00 +30°C° 1.9 mm 2 mps 733 mmHg 81%
    15:00 +29°C° 1.9 mm 1 mps 733 mmHg 82%
    16:00 +29°C° 1.9 mm 1 mps 732 mmHg 84%
    17:00 +28°C° 0.7 mm 1 mps 733 mmHg 86%
    18:00 +27°C° 0.7 mm 1 mps 733 mmHg 89%
    19:00 +26°C° 0.7 mm 1 mps 733 mmHg 91%
    20:00 +25°C° 0.1 mm 1 mps 734 mmHg 92%
    21:00 +25°C° 0.1 mm 1 mps 734 mmHg 93%
    22:00 +25°C° 0.1 mm 1 mps 734 mmHg 94%
    23:00 +25°C° 0 mm 1 mps 734 mmHg 94%

    Tomorrow, 15 December, Friday

    Time Temperature Precipitation Wind Pressure Humidity
    00:00 +24°C° 0 mm 1 mps 734 mmHg 95%
    01:00 +24°C° 0 mm 1 mps 733 mmHg 95%
    02:00 +22°C° 0 mm 0 mps 733 mmHg 95%
    03:00 +22°C° 0 mm 0 mps 733 mmHg 95%
    04:00 +22°C° 0 mm 0 mps 733 mmHg 95%
    05:00 +22°C° 0 mm 0 mps 733 mmHg 94%
    06:00 +23°C° 0 mm 0 mps 733 mmHg 93%
    07:00 +23°C° 0 mm 0 mps 734 mmHg 92%
    08:00 +27°C° 0 mm 1 mps 734 mmHg 83%
    09:00 +29°C° 0 mm 1 mps 734 mmHg 75%
    10:00 +31°C° 0 mm 2 mps 734 mmHg 66%
    11:00 +32°C° 0 mm 2 mps 734 mmHg 62%
    12:00 +34°C° 0 mm 2 mps 733 mmHg 57%
    13:00 +35°C° 0 mm 2 mps 732 mmHg 53%
    14:00 +35°C° 0 mm 2 mps 732 mmHg 55%
    15:00 +35°C° 0 mm 2 mps 731 mmHg 58%
    16:00 +34°C° 0 mm 2 mps 730 mmHg 60%
    17:00 +31°C° 0.1 mm 2 mps 731 mmHg 67%
    18:00 +29°C° 0.1 mm 1 mps 731 mmHg 73%
    19:00 +28°C° 0.1 mm 1 mps 731 mmHg 80%
    20:00 +27°C° 0 mm 1 mps 732 mmHg 83%
    21:00 +27°C° 0 mm 1 mps 733 mmHg 85%
    22:00 +26°C° 0 mm 1 mps 734 mmHg 87%
    23:00 +26°C° 0 mm 1 mps 733 mmHg 88%

    Day after tomorrow, 16 December, Saturday

    Time Temperature Precipitation Wind Pressure Humidity
    00:00 +25°C° 0 mm 1 mps 733 mmHg 89%
    01:00 +25°C° 0 mm 1 mps 733 mmHg 90%
    02:00 +25°C° 0.4 mm 1 mps 733 mmHg 92%
    03:00 +25°C° 0.4 mm 1 mps 732 mmHg 94%
    04:00 +24°C° 0.4 mm 1 mps 732 mmHg 96%
    05:00 +24°C° 0.3 mm 1 mps 733 mmHg 95%
    06:00 +25°C° 0.3 mm 2 mps 733 mmHg 94%
    07:00 +25°C° 0.3 mm 2 mps 734 mmHg 94%
    08:00 +27°C° 0 mm 2 mps 734 mmHg 88%
    09:00 +28°C° 0 mm 2 mps 734 mmHg 82%
    10:00 +30°C° 0 mm 3 mps 735 mmHg 76%
    11:00 +30°C° 0.8 mm 2 mps 734 mmHg 75%
    12:00 +31°C° 0.8 mm 2 mps 733 mmHg 73%
    13:00 +31°C° 0.8 mm 2 mps 733 mmHg 72%
    14:00 +31°C° 1 mm 2 mps 732 mmHg 74%
    15:00 +31°C° 1 mm 2 mps 732 mmHg 76%
    16:00 +30°C° 1 mm 1 mps 731 mmHg 78%
    17:00 +29°C° 0.2 mm 1 mps 732 mmHg 83%
    18:00 +28°C° 0.2 mm 1 mps 732 mmHg 87%
    19:00 +26°C° 0.2 mm 1 mps 732 mmHg 91%
    20:00 +26°C° 0.4 mm 1 mps 733 mmHg 92%
    21:00 +25°C° 0.4 mm 1 mps 733 mmHg 93%
    22:00 +23°C° 0.4 mm 0 mps 734 mmHg 94%
    23:00 +23°C° 0.1 mm 0 mps 733 mmHg 94%

    17 December, Sunday

    Time Temperature Precipitation Wind Pressure Humidity
    00:00 +23°C° 0.1 mm 0 mps 733 mmHg 95%
    01:00 +23°C° 0.1 mm 0 mps 733 mmHg 95%
    02:00 +24°C° 0 mm 1 mps 732 mmHg 95%
    03:00 +24°C° 0 mm 1 mps 732 mmHg 95%
    04:00 +24°C° 0 mm 1 mps 732 mmHg 96%
    05:00 +23°C° 0 mm 0 mps 733 mmHg 94%
    06:00 +23°C° 0 mm 0 mps 733 mmHg 93%
    07:00 +24°C° 0 mm 0 mps 734 mmHg 91%
    08:00 +27°C° 0.2 mm 1 mps 734 mmHg 85%
    09:00 +29°C° 0.2 mm 1 mps 734 mmHg 78%
    10:00 +31°C° 0.2 mm 2 mps 735 mmHg 71%
    11:00 +31°C° 0.6 mm 2 mps 734 mmHg 70%
    12:00 +32°C° 0.6 mm 2 mps 733 mmHg 68%
    13:00 +32°C° 0.6 mm 2 mps 732 mmHg 67%
    14:00 +32°C° 1.8 mm 1 mps 732 mmHg 71%
    15:00 +31°C° 1.8 mm 1 mps 731 mmHg 75%
    16:00 +28°C° 1.8 mm 0 mps 731 mmHg 79%
    17:00 +29°C° 1.3 mm 1 mps 731 mmHg 82%
    18:00 +28°C° 1.3 mm 1 mps 732 mmHg 86%
    19:00 +26°C° 1.3 mm 1 mps 732 mmHg 90%
    20:00 +26°C° 0.1 mm 1 mps 733 mmHg 90%
    21:00 +26°C° 0.1 mm 1 mps 734 mmHg 91%
    22:00 +26°C° 0.1 mm 1 mps 734 mmHg 91%
    23:00 +25°C° 0 mm 1 mps 734 mmHg 92%

    18 December, Monday

    Time Temperature Precipitation Wind Pressure Humidity
    00:00 +25°C° 0 mm 1 mps 733 mmHg 92%
    01:00 +25°C° 0 mm 2 mps 733 mmHg 93%
    02:00 +25°C° 0 mm 1 mps 733 mmHg 94%
    03:00 +25°C° 0 mm 1 mps 733 mmHg 95%
    04:00 +24°C° 0 mm 1 mps 733 mmHg 96%
    05:00 +25°C° 0 mm 1 mps 733 mmHg 95%
    06:00 +25°C° 0 mm 1 mps 734 mmHg 95%
    07:00 +25°C° 0 mm 1 mps 734 mmHg 94%
    08:00 +27°C° 0 mm 1 mps 735 mmHg 87%
    09:00 +28°C° 0 mm 2 mps 735 mmHg 80%
    10:00 +29°C° 0 mm 2 mps 735 mmHg 74%
    11:00 +30°C° 0 mm 2 mps 734 mmHg 70%
    12:00 +31°C° 0 mm 2 mps 733 mmHg 66%
    13:00 +32°C° 0 mm 2 mps 733 mmHg 62%
    14:00 +32°C° 0.1 mm 2 mps 732 mmHg 64%
    15:00 +32°C° 0.1 mm 2 mps 732 mmHg 65%
    16:00 +32°C° 0.1 mm 2 mps 731 mmHg 67%
    17:00 +30°C° 0.2 mm 2 mps 732 mmHg 73%
    18:00 +29°C° 0.2 mm 1 mps 732 mmHg 78%
    19:00 +27°C° 0.2 mm 1 mps 732 mmHg 84%
    20:00 +27°C° 1.5 mm 1 mps 733 mmHg 88%
    21:00 +26°C° 1.5 mm 1 mps 733 mmHg 91%
    22:00 +25°C° 1.5 mm 1 mps 734 mmHg 95%
    23:00 +25°C° 0.2 mm 1 mps 733 mmHg 95%

    19 December, Tuesday

    Time Temperature Precipitation Wind Pressure Humidity
    00:00 +25°C° 0.2 mm 1 mps 733 mmHg 95%
    01:00 +25°C° 0.2 mm 1 mps 733 mmHg 96%
    02:00 +25°C° 0.1 mm 1 mps 733 mmHg 96%
    03:00 +24°C° 0.1 mm 1 mps 733 mmHg 96%
    04:00 +24°C° 0.1 mm 1 mps 733 mmHg 97%
    05:00 +24°C° 0.2 mm 1 mps 733 mmHg 96%
    06:00 +25°C° 0.2 mm 1 mps 734 mmHg 95%
    07:00 +25°C° 0.2 mm 1 mps 734 mmHg 94%
    08:00 +26°C° 0.3 mm 1 mps 734 mmHg 89%
    09:00 +28°C° 0.3 mm 1 mps 735 mmHg 83%
    10:00 +29°C° 0.3 mm 2 mps 735 mmHg 78%
    11:00 +30°C° 1.2 mm 2 mps 734 mmHg 76%
    12:00 +30°C° 1.2 mm 2 mps 733 mmHg 73%
    13:00 +31°C° 1.2 mm 2 mps 732 mmHg 71%
    14:00 +31°C° 2.2 mm 1 mps 732 mmHg 74%
    15:00 +30°C° 2.2 mm 1 mps 732 mmHg 77%
    16:00 +30°C° 2.2 mm 1 mps 731 mmHg 80%
    17:00 +28°C° 0.9 mm 1 mps 732 mmHg 83%
    18:00 +27°C° 0.9 mm 1 mps 732 mmHg 86%
    19:00 +26°C° 0.9 mm 1 mps 733 mmHg 89%
    20:00 +26°C° 0.4 mm 1 mps 733 mmHg 90%
    21:00 +25°C° 0.4 mm 1 mps 733 mmHg 91%
    22:00 +25°C° 0.4 mm 1 mps 734 mmHg 92%
    23:00 +25°C° 0 mm 1 mps 733 mmHg 93%
    Show more